Location: Colleton State Park
(33.0623°N, 80.6164°W)
Time: 06:58:17
(UTC-04:00)

Hubble Space Telescope - Visible Passes

Search period start: 19 May 2019 00:00
Search period end: 29 May 2019 00:00
Orbit: 536 x 540 km, 28.5° (Epoch: 18 May)

Date Brightness Start Highest point End Pass type
(mag) Time Alt. Az. Time Alt. Az. Time Alt. Az.
19 May 2.6 21:32:38 10° WSW 21:35:28 18° SSW 21:36:51 16° S visible
20 May 2.9 21:22:30 10° WSW 21:24:52 15° SSW 21:26:52 11° S visible
21 May 3.1 21:12:41 10° SW 21:14:15 12° SSW 21:15:50 10° S visible
